R/V Knorr Calliope CSV data file  (Time stamps are GMT)
Date, Time_GMT, Depth12, Depth35, Air_Temp, WXT5_Ta, WXT5_Pa, dec_lat, dec_lon, EDO_knt, GPS_COG, GPS_SOG, Gyro, IMET_BPR, IMET_SWR, WXT5_Ri, WXT5_Rc, HRH, WXT5_Ua, WXT5_Dm, WXT5_Sm, SBE45C, SBE45S, SBE45T, Salinity, SSCND, Fluorometer, SSTMP, SSV, Wnd_Dir, TWD_5, Wnd_Spd, TWS_5, HdChkSum=52
2008/03/24, 00:00:21, 787.10, 0.00, 0.92, 1.30, 1015.3, 43.5585230, -59.6414820, , 79.30, 12.40, 78.20, 1016.15, -0.50, 0.0, 27.51, 69.05, 72.1, 191, 6.4, 29.38160, 32.31500, 2.9095, 32.3150, , 238.40, 1.5511, 1452.58, 260.50, 265.0, 11.04, 13.2, 52
2008/03/24, 00:01:22, 874.00, 0.00, 0.84, 1.30, 1015.2, 43.5589970, -59.6368750, , 80.50, 12.63, 79.90, 1016.13, -0.40, 0.0, 27.51, 69.13, 72.5, 185, 8.9, 29.39700, 32.32150, 2.9216, 32.3215, , 238.80, 1.5523, 1452.59, 255.30, 261.2, 10.26, 14.9, 52
2008/03/24, 00:02:22, 966.20, 0.00, 0.87, 1.30, 1015.7, 43.5594480, -59.6322020, , 84.80, 11.84, 81.90, 1016.23, -0.40, 0.0, 27.51, 68.72, 71.5, 200, 5.7, 29.41140, 32.32850, 2.9321, 32.3285, , 244.00, 1.5509, 1452.60, 256.80, 268.4, 11.47, 12.0, 52
2008/03/24, 00:03:22, 1085.00, 0.00, 0.92, 1.30, 1015.6, 43.5598750, -59.6274620, , 85.50, 12.20, 81.10, 1016.31, -0.40, 0.0, 27.51, 69.33, 72.2, 189, 6.7, 29.42630, 32.33710, 2.9414, 32.3371, , 235.40, 1.5488, 1452.60, 258.50, 264.4, 10.67, 13.4, 52
2008/03/24, 00:04:22, 1152.00, 0.00, 0.98, 1.40, 1015.4, 43.5602530, -59.6226000, , 78.20, 13.17, 83.60, 1016.41, -0.20, 0.0, 27.51, 69.95, 73.2, 188, 6.4, 29.44850, 32.34870, 2.9567, 32.3487, , 235.10, 1.5439, 1452.59, 259.70, 267.2, 9.31, 12.7, 52
2008/03/24, 00:05:22, 1206.00, 0.00, 0.84, 1.40, 1015.6, 43.5606380, -59.6179400, , 80.00, 11.14, 80.10, 1016.47, -0.70, 0.0, 27.51, 69.49, 72.8, 199, 6.7, 29.46210, 32.35710, 2.9648, 32.3571, , 237.90, 1.5366, 1452.57, 260.60, 272.2, 9.90, 12.9, 52
2008/03/24, 00:06:22, 1291.00, 0.00, 0.90, 1.40, 1015.7, 43.5610080, -59.6134700, , 87.70, 11.56, 81.10, 1016.16, -0.50, 0.0, 27.51, 69.15, 72.3, 195, 6.3, 29.47600, 32.36430, 2.9743, 32.3643, , 231.20, 1.5310, 1452.55, 260.00, 266.2, 10.57, 12.7, 52
2008/03/24, 00:07:22, 1303.00, 0.00, 0.92, 1.30, 1015.6, 43.5613550, -59.6088330, , 79.00, 11.61, 81.70, 1016.54, -0.30, 0.0, 27.51, 69.15, 72.4, 191, 6.6, 29.49850, 32.36780, 2.9980, 32.3678, , 229.00, 1.5205, 1452.52, 268.70, 271.6, 10.34, 13.3, 52
2008/03/24, 00:08:22, 1314.00, 0.00, 0.87, 1.30, 1015.7, 43.5617470, -59.6041000, , 81.60, 12.28, 82.20, 1016.77, -0.50, 0.0, 27.51, 69.36, 72.5, 191, 5.5, 29.48780, 32.37170, 2.9812, 32.3717, , 229.00, 1.5136, 1452.49, 261.30, 266.2, 9.49, 11.9, 52
2008/03/24, 00:09:22, 1227.00, 0.00, 0.84, 1.40, 1015.4, 43.5621470, -59.5993870, , 81.10, 12.97, 80.50, 1016.34, -0.50, 0.0, 27.51, 69.18, 72.5, 185, 6.7, 29.48030, 32.37160, 2.9722, 32.3716, , 230.20, 1.5079, 1452.46, 258.20, 262.8, 9.52, 12.8, 52
2008/03/24, 00:10:22, 1084.00, 0.00, 0.90, 1.30, 1015.6, 43.5625280, -59.5946670, , 82.00, 12.36, 81.90, 1016.42, -0.60, 0.0, 27.51, 69.44, 72.6, 178, 9.3, 29.47160, 32.37010, 2.9634, 32.3701, , 237.90, 1.5034, 1452.44, 256.20, 258.1, 10.24, 15.6, 52
2008/03/24, 00:11:22, 1067.00, 0.00, 0.87, 1.30, 1015.6, 43.5628980, -59.5899870, , 82.30, 12.32, 80.40, 1016.34, -0.60, 0.0, 27.51, 69.02, 72.5, 192, 8.1, 29.46640, 32.36950, 2.9576, 32.3695, , 235.10, 1.5002, 1452.43, 258.50, 268.3, 10.71, 14.7, 52
2008/03/24, 00:12:22, 998.90, 0.00, 0.78, 1.30, 1015.8, 43.5633470, -59.5852880, , 83.30, 12.01, 81.70, 1016.33, -0.60, 0.0, 27.51, 68.59, 71.4, 197, 6.5, 29.45480, 32.36760, 2.9456, 32.3676, , 235.70, 1.4981, 1452.42, 257.00, 267.7, 12.00, 13.1, 52
2008/03/24, 00:13:22, 0.00, 0.00, 0.92, 1.30, 1015.6, 43.5637480, -59.5805500, , 82.30, 12.87, 79.60, 1016.52, -0.50, 0.0, 27.51, 68.84, 71.9, 184, 7.2, 29.44230, 32.36410, 2.9340, 32.3641, , 236.90, 1.4968, 1452.40, 261.80, 262.5, 9.86, 13.5, 52
2008/03/24, 00:14:22, 1192.00, 0.00, 0.90, 1.30, 1015.7, 43.5641300, -59.5758180, , 81.20, 12.36, 79.60, 1016.36, -0.30, 0.0, 27.51, 68.92, 72.3, 178, 7.7, 29.43410, 32.36310, 2.9250, 32.3631, , 236.90, 1.4970, 1452.40, 254.60, 259.5, 11.08, 13.7, 52
2008/03/24, 00:15:22, 1252.00, 0.00, 0.95, 1.30, 1015.9, 43.5645380, -59.5710880, , 83.10, 12.16, 83.50, 1016.48, -0.40, 0.0, 27.51, 69.51, 72.6, 179, 9.2, 29.42580, 32.36270, 2.9154, 32.3627, , 242.80, 1.4977, 1452.41, 256.40, 259.4, 11.07, 15.5, 52
2008/03/24, 00:16:22, 1315.00, 0.00, 0.78, 1.30, 1015.5, 43.5649470, -59.5663350, , 84.20, 13.00, 80.30, 1016.61, -0.40, 0.0, 27.51, 69.36, 72.5, 182, 8.8, 29.41870, 32.36210, 2.9074, 32.3621, , 245.40, 1.5002, 1452.42, 255.00, 259.6, 11.19, 15.4, 52
2008/03/24, 00:17:22, 1324.00, 0.00, 0.81, 1.30, 1015.4, 43.5653780, -59.5615720, , 87.50, 12.71, 80.00, 1016.38, -0.40, 0.0, 27.51, 68.79, 72.1, 197, 6.8, 29.42350, 32.36490, 2.9106, 32.3649, , 244.60, 1.5037, 1452.44, 252.00, 265.8, 12.43, 12.8, 52
2008/03/24, 00:18:22, 1338.00, 0.00, 0.87, 1.30, 1015.9, 43.5658050, -59.5567350, , 83.00, 11.87, 81.50, 1016.40, -0.50, 0.0, 27.51, 68.95, 71.9, 181, 8.4, 29.41830, 32.36590, 2.9033, 32.3659, , 249.40, 1.5081, 1452.46, 257.60, 259.3, 11.14, 14.9, 52
2008/03/24, 00:19:22, 1206.00, 0.00, 0.87, 1.30, 1015.5, 43.5661350, -59.5520720, , 87.90, 13.31, 81.80, 1016.42, -0.20, 0.0, 27.51, 68.82, 71.8, 183, 6.8, 29.42160, 32.36770, 2.9054, 32.3677, , 254.00, 1.5142, 1452.49, 257.80, 262.9, 10.75, 13.2, 52
2008/03/24, 00:20:22, 0.00, 0.00, 0.87, 1.30, 1015.8, 43.5664670, -59.5473880, , 82.30, 12.83, 80.80, 1016.44, -0.70, 0.0, 27.51, 69.59, 72.8, 184, 8.8, 29.42920, 32.37190, 2.9104, 32.3719, , 261.70, 1.5208, 1452.52, 258.60, 263.6, 10.48, 15.2, 52
2008/03/24, 00:21:22, 1127.00, 0.00, 0.90, 1.30, 1015.6, 43.5668770, -59.5427500, , 87.50, 12.61, 78.70, 1016.36, -0.50, 0.0, 27.51, 69.69, 72.7, 182, 9.0, 29.43600, 32.37330, 2.9172, 32.3733, , 262.50, 1.5263, 1452.55, 253.30, 259.9, 10.74, 15.4, 52
2008/03/24, 00:22:22, 1037.00, 0.00, 0.76, 1.30, 1015.6, 43.5672900, -59.5380820, , 81.90, 12.53, 82.10, 1016.71, -0.60, 0.0, 27.51, 68.97, 72.3, 183, 10.5, 29.43500, 32.37740, 2.9120, 32.3774, , 258.00, 1.5398, 1452.61, 253.60, 261.1, 10.46, 16.4, 52
2008/03/24, 00:23:22, 970.00, 0.00, 0.76, 1.30, 1015.4, 43.5676950, -59.5335030, , 76.50, 12.13, 82.00, 1016.08, -0.50, 0.0, 27.51, 68.53, 71.6, 183, 8.1, 29.44540, 32.38350, 2.9184, 32.3835, , 268.40, 1.5512, 1452.67, 259.80, 262.5, 11.44, 14.0, 52
2008/03/24, 00:24:22, 928.40, 0.00, 0.87, 1.30, 1015.8, 43.5680830, -59.5288100, , 85.90, 12.56, 79.50, 1016.60, -0.50, 0.0, 27.51, 68.77, 71.9, 186, 7.2, 29.45480, 32.38640, 2.9269, 32.3864, , 267.50, 1.5630, 1452.73, 259.30, 265.4, 11.10, 13.4, 52
2008/03/24, 00:25:22, 953.20, 0.00, 0.92, 1.30, 1015.9, 43.5684620, -59.5241200, , 82.50, 11.72, 81.60, 1016.63, -0.40, 0.0, 27.51, 69.82, 72.9, 192, 5.3, 29.45870, 32.38940, 2.9287, 32.3894, , 265.20, 1.5759, 1452.79, 258.10, 268.3, 10.09, 11.6, 52
2008/03/24, 00:26:22, 1060.00, 0.00, 0.92, 1.40, 1015.8, 43.5687880, -59.5194450, , 84.50, 12.38, 78.70, 1016.82, -0.40, 0.0, 27.51, 70.10, 73.3, 189, 6.1, 29.47010, 32.39270, 2.9390, 32.3927, , 267.50, 1.5839, 1452.83, 256.40, 262.6, 9.19, 12.3, 52
2008/03/24, 00:27:22, 1187.00, 0.00, 0.95, 1.40, 1015.8, 43.5691970, -59.5147150, , 82.30, 12.79, 79.10, 1016.78, -0.50, 0.0, 27.51, 69.97, 73.5, 197, 5.4, 29.48210, 32.39720, 2.9490, 32.3972, , 266.80, 1.5948, 1452.88, 257.20, 268.7, 10.05, 11.9, 52
2008/03/24, 00:28:22, 1207.00, 0.00, 0.87, 1.40, 1016.0, 43.5696220, -59.5098420, , 85.80, 12.53, 81.50, 1016.92, -0.50, 0.0, 27.51, 69.69, 73.0, 199, 6.7, 29.49180, 32.40270, 2.9553, 32.4027, , 269.60, 1.6035, 1452.93, 259.60, 269.8, 10.10, 13.1, 52
2008/03/24, 00:29:22, 1152.00, 0.00, 0.98, 1.40, 1016.0, 43.5699520, -59.5051020, , 81.30, 11.84, 78.60, 1016.77, -0.50, 0.0, 27.51, 69.61, 72.6, 187, 8.4, 29.50940, 32.41220, 2.9670, 32.4122, , 274.20, 1.6124, 1452.98, 259.50, 263.8, 11.19, 15.3, 52
2008/03/24, 00:30:22, 1060.00, 0.00, 0.84, 1.30, 1015.6, 43.5703820, -59.5002980, , 94.70, 11.99, 80.10, 1016.88, -0.20, 0.0, 27.51, 69.23, 72.5, 181, 9.3, 29.52930, 32.41870, 2.9845, 32.4187, , 279.00, 1.6161, 1453.01, 251.80, 259.3, 12.16, 16.1, 52
2008/03/24, 00:31:22, 1045.00, 0.00, 0.81, 1.30, 1015.7, 43.5708000, -59.4955280, , 81.70, 12.18, 79.40, 1016.89, -0.30, 0.0, 27.51, 69.44, 72.3, 197, 5.0, 29.55500, 32.42590, 3.0083, 32.4259, , 272.90, 1.6187, 1453.03, 256.60, 269.4, 12.34, 11.7, 52
2008/03/24, 00:32:22, 0.00, 0.00, 0.95, 1.30, 1015.9, 43.5712150, -59.4908770, , 86.50, 11.93, 81.50, 1016.82, -0.30, 0.0, 27.51, 69.54, 73.0, 183, 8.4, 29.56340, 32.43390, 3.0106, 32.4339, , 280.30, 1.6219, 1453.05, 255.90, 261.0, 10.51, 14.9, 52
2008/03/24, 00:33:22, 0.00, 0.00, 0.84, 1.30, 1015.9, 43.5715820, -59.4862230, , 80.90, 12.51, 83.30, 1016.87, -0.40, 0.0, 27.51, 69.54, 72.7, 181, 9.1, 29.58040, 32.44020, 3.0247, 32.4402, , 280.30, 1.6264, 1453.08, 254.60, 259.0, 11.02, 15.3, 52
2008/03/24, 00:34:22, 974.30, 0.00, 1.01, 1.30, 1016.0, 43.5719370, -59.4815980, , 85.00, 11.87, 78.70, 1017.00, -0.50, 0.0, 27.51, 69.64, 72.6, 190, 6.2, 29.59970, 32.44660, 3.0414, 32.4466, , 277.90, 1.6325, 1453.12, 257.30, 265.1, 11.52, 12.6, 52
2008/03/24, 00:35:22, 0.00, 0.00, 0.90, 1.40, 1016.2, 43.5722870, -59.4769670, , 87.60, 11.63, 79.80, 1017.11, -0.40, 0.0, 27.51, 69.82, 73.3, 181, 9.6, 29.60170, 32.45120, 3.0394, 32.4512, , 282.40, 1.6400, 1453.16, 255.10, 260.3, 9.79, 15.8, 52
2008/03/24, 00:36:22, 1205.00, 0.00, 0.92, 1.30, 1016.0, 43.5726730, -59.4724570, , 81.50, 10.57, 80.00, 1016.84, -0.30, 0.0, 27.51, 69.92, 73.0, 189, 5.6, 29.61800, 32.46390, 3.0463, 32.4639, , 279.00, 1.6530, 1453.23, 255.00, 262.6, 10.95, 11.5, 52
2008/03/24, 00:37:22, 0.00, 0.00, 0.95, 1.40, 1016.0, 43.5730480, -59.4680620, , 78.50, 11.69, 81.20, 1016.73, -0.40, 0.0, 27.51, 70.31, 73.6, 186, 7.6, 29.62600, 32.46820, 3.0517, 32.4682, , 270.80, 1.6702, 1453.31, 256.30, 263.4, 9.09, 13.1, 52
2008/03/24, 00:38:22, 1254.00, 0.00, 0.90, 1.40, 1016.1, 43.5734580, -59.4635070, , 79.90, 11.48, 79.40, 1016.75, -0.30, 0.0, 27.51, 69.79, 72.8, 177, 8.8, 29.65390, 32.47750, 3.0759, 32.4775, , 265.10, 1.6837, 1453.37, 260.30, 260.5, 10.79, 14.7, 52
2008/03/24, 00:39:22, 1328.00, 0.00, 0.87, 1.30, 1016.3, 43.5738620, -59.4586930, , 80.50, 12.54, 80.70, 1016.98, -0.50, 0.0, 27.51, 69.74, 73.2, 189, 7.7, 29.64280, 32.48830, 3.0518, 32.4883, , 272.90, 1.7136, 1453.53, 258.00, 267.0, 11.14, 13.9, 52
2008/03/24, 00:40:22, 1273.00, 0.00, 0.92, 1.30, 1016.2, 43.5742780, -59.4540080, , 87.40, 13.19, 80.80, 1016.87, -0.40, 0.0, 27.51, 69.84, 73.0, 185, 7.6, 29.65570, 32.50480, 3.0511, 32.5048, , 267.80, 1.7359, 1453.65, 256.40, 262.1, 11.24, 13.9, 52
2008/03/24, 00:41:22, 1229.00, 0.00, 1.03, 1.30, 1016.2, 43.5746370, -59.4492320, , 81.60, 12.13, 77.90, 1016.93, -0.10, 0.0, 27.51, 70.51, 73.7, 187, 6.6, 29.67150, 32.51680, 3.0581, 32.5168, , 256.80, 1.7586, 1453.77, 258.80, 266.1, 10.57, 13.1, 52
2008/03/24, 00:42:22, 1063.00, 0.00, 1.03, 1.40, 1016.3, 43.5750670, -59.4443750, , 85.60, 12.83, 80.10, 1017.09, -0.20, 0.0, 27.51, 70.66, 73.8, 191, 6.0, 29.69130, 32.53010, 3.0687, 32.5301, , 257.40, 1.7771, 1453.86, 260.10, 266.8, 10.33, 12.7, 52
2008/03/24, 00:43:21, 1055.00, 0.00, 0.90, 1.40, 1016.0, 43.5754880, -59.4395950, , 81.50, 12.99, 79.30, 1016.75, -0.10, 0.0, 27.51, 70.25, 73.8, 196, 6.7, 29.71390, 32.54360, 3.0824, 32.5436, , 251.00, 1.7884, 1453.93, 258.10, 269.7, 10.28, 13.0, 52
2008/03/24, 00:44:21, 1000.00, 0.00, 0.95, 1.40, 1016.1, 43.5759230, -59.4348250, , 77.70, 12.70, 80.70, 1016.92, -0.20, 0.0, 27.51, 70.33, 73.3, 190, 8.4, 29.74710, 32.55950, 3.1064, 32.5595, , 254.00, 1.7951, 1453.98, 261.80, 265.8, 10.16, 15.0, 52
2008/03/24, 00:45:22, 1003.00, 0.00, 0.98, 1.40, 1016.3, 43.5763180, -59.4299420, , 82.40, 12.73, 84.10, 1016.87, -0.20, 0.0, 27.51, 69.90, 73.0, 188, 7.1, 29.79370, 32.58330, 3.1386, 32.5833, , 244.90, 1.7968, 1454.02, 264.60, 268.9, 10.33, 13.4, 52
2008/03/24, 00:46:22, 1096.00, 0.00, 0.98, 1.40, 1016.0, 43.5766650, -59.4252620, , 80.50, 12.15, 82.00, 1016.88, -0.30, 0.0, 27.51, 69.56, 72.6, 189, 7.3, 29.82760, 32.60040, 3.1623, 32.6004, , 243.00, 1.7948, 1454.03, 256.90, 265.7, 11.67, 14.0, 52
2008/03/24, 00:47:22, 1126.00, 0.00, 1.01, 1.30, 1016.1, 43.5770780, -59.4204920, , 86.70, 11.84, 79.40, 1016.78, -0.10, 0.0, 27.51, 69.41, 72.6, 187, 7.9, 29.85890, 32.60970, 3.1905, 32.6097, , 239.60, 1.7923, 1454.04, 257.10, 263.6, 11.11, 14.5, 52
2008/03/24, 00:48:22, 1176.00, 0.00, 0.92, 1.30, 1016.2, 43.5774950, -59.4158820, , 85.30, 12.40, 79.00, 1016.70, -0.10, 0.0, 27.51, 69.87, 72.9, 189, 6.1, 29.88660, 32.61530, 3.2180, 32.6153, , 232.70, 1.7923, 1454.05, 259.50, 265.4, 10.48, 12.6, 52
2008/03/24, 00:49:22, 987.90, 0.00, 0.87, 1.40, 1016.3, 43.5779170, -59.4111120, , 82.90, 12.87, 79.40, 1017.20, -0.10, 0.0, 27.51, 69.97, 73.2, 187, 5.3, 29.89980, 32.61520, 3.2339, 32.6152, , 230.80, 1.7944, 1454.06, 258.00, 262.6, 9.89, 11.8, 52
2008/03/24, 00:50:22, 1133.00, 0.00, 0.92, 1.40, 1016.0, 43.5783330, -59.4062780, , 84.00, 12.62, 80.10, 1017.05, 0.00, 0.0, 27.51, 70.64, 73.9, 191, 6.2, 29.89670, 32.60750, 3.2377, 32.6075, , 233.60, 1.7972, 1454.06, 258.70, 266.8, 9.65, 12.7, 52
2008/03/24, 00:51:22, 0.00, 0.00, 1.06, 1.40, 1016.3, 43.5786800, -59.4016430, , 86.40, 11.73, 80.20, 1017.19, -0.10, 0.0, 27.51, 70.64, 73.9, 184, 5.5, 29.88290, 32.59270, 3.2360, 32.5927, , 232.40, 1.8051, 1454.08, 256.60, 261.9, 9.90, 11.7, 52
2008/03/24, 00:52:22, 1198.00, 0.00, 0.90, 1.40, 1016.3, 43.5790850, -59.3968900, , 87.70, 13.20, 79.30, 1017.12, 0.10, 0.0, 27.51, 70.36, 73.7, 201, 5.5, 29.86280, 32.57840, 3.2261, 32.5784, , 234.80, 1.8126, 1454.09, 254.90, 270.3, 10.16, 11.7, 52
2008/03/24, 00:53:22, 1106.00, 0.00, 0.98, 1.40, 1016.3, 43.5795300, -59.3921080, , 81.50, 12.75, 81.50, 1016.97, 0.10, 0.0, 27.51, 69.56, 72.9, 198, 6.3, 29.84410, 32.56830, 3.2138, 32.5683, , 233.20, 1.8215, 1454.11, 259.80, 269.6, 10.35, 12.4, 52
2008/03/24, 00:54:22, 1009.00, 0.00, 0.98, 1.40, 1016.3, 43.5798880, -59.3873480, , 82.20, 11.82, 81.20, 1017.04, 0.10, 0.0, 27.51, 69.92, 73.1, 183, 8.0, 29.83700, 32.55870, 3.2148, 32.5587, , 228.00, 1.8353, 1454.17, 261.90, 261.9, 9.82, 14.7, 52
2008/03/24, 00:55:22, 897.90, 0.00, 0.98, 1.40, 1016.0, 43.5802720, -59.3826920, , 86.10, 12.70, 80.80, 1016.89, 0.20, 0.0, 27.51, 69.54, 72.7, 196, 6.0, 29.82530, 32.55730, 3.2023, 32.5573, , 221.40, 1.8506, 1454.23, 257.60, 266.9, 11.16, 12.3, 52
2008/03/24, 00:56:22, 979.00, 0.00, 1.09, 1.40, 1016.6, 43.5807700, -59.3779170, , 75.40, 12.77, 82.50, 1016.87, 0.10, 0.0, 27.51, 70.08, 73.2, 189, 5.8, 29.83550, 32.55730, 3.2144, 32.5573, , 218.30, 1.8715, 1454.32, 261.00, 265.1, 9.85, 12.1, 52
2008/03/24, 00:57:22, 903.90, 0.00, 1.03, 1.40, 1016.6, 43.5811670, -59.3731330, , 79.30, 11.80, 80.10, 1017.37, 0.10, 0.0, 27.51, 70.54, 73.8, 206, 4.6, 29.84850, 32.55910, 3.2282, 32.5591, , 215.90, 1.8950, 1454.43, 265.50, 274.5, 9.68, 11.2, 52
2008/03/24, 00:58:22, 998.10, 0.00, 1.03, 1.50, 1016.2, 43.5815830, -59.3683170, , 84.90, 12.57, 82.20, 1017.34, 0.10, 0.0, 27.51, 70.41, 73.7, 187, 7.1, 29.84800, 32.56160, 3.2251, 32.5616, , 217.40, 1.9109, 1454.50, 262.80, 264.9, 8.79, 13.5, 52
2008/03/24, 00:59:22, 1091.00, 0.00, 1.03, 1.50, 1016.4, 43.5819480, -59.3635630, , 86.50, 12.40, 80.20, 1017.09, 0.00, 0.0, 27.51, 70.41, 73.5, 189, 4.8, 29.85740, 32.56510, 3.2329, 32.5651, , 214.40, 1.9426, 1454.64, 259.40, 264.5, 9.47, 11.0, 52
2008/03/24, 01:00:22, 1138.00, 0.00, 0.98, 1.50, 1016.6, 43.5823300, -59.3588020, , 81.80, 13.06, 81.30, 1017.31, -0.30, 0.0, 27.51, 70.61, 74.0, 204, 4.6, 29.86550, 32.56960, 3.2381, 32.5696, , 212.80, 1.9573, 1454.71, 259.60, 272.0, 9.33, 10.9, 52
2008/03/24, 01:01:22, 1006.00, 0.00, 1.03, 1.50, 1016.7, 43.5827830, -59.3539330, , 88.30, 13.06, 80.20, 1017.24, 0.00, 0.0, 27.51, 69.84, 73.5, 203, 5.9, 29.89390, 32.58580, 3.2559, 32.5858, , 207.00, 1.9891, 1454.87, 260.70, 269.5, 9.44, 12.1, 52
2008/03/24, 01:02:22, 1051.00, 0.00, 1.03, 1.50, 1016.6, 43.5831850, -59.3490770, , 90.50, 13.00, 79.20, 1017.43, -0.20, 0.0, 27.51, 69.82, 73.0, 203, 4.8, 29.93010, 32.60330, 3.2818, 32.6033, , 207.30, 2.0159, 1455.01, 263.60, 271.2, 10.06, 11.2, 52
2008/03/24, 01:03:22, 965.90, 0.00, 1.09, 1.50, 1016.7, 43.5836130, -59.3442050, , 80.10, 12.81, 82.10, 1017.40, -0.30, 0.0, 27.51, 70.18, 73.1, 219, 4.6, 29.96900, 32.61760, 3.3140, 32.6176, , 208.00, 2.0414, 1455.14, 263.10, 277.5, 9.74, 10.5, 52
2008/03/24, 01:04:21, 920.80, 0.00, 1.06, 1.50, 1016.7, 43.5839670, -59.3394650, , 83.30, 13.12, 82.10, 1017.69, -0.20, 0.0, 27.51, 70.15, 73.6, 201, 5.4, 29.99430, 32.62640, 3.3355, 32.6264, , 207.00, 2.0586, 1455.23, 261.30, 267.7, 9.36, 11.7, 52
2008/03/24, 01:05:21, 812.60, 0.00, 1.12, 1.50, 1016.6, 43.5843980, -59.3347130, , 78.30, 12.37, 78.70, 1017.58, -0.20, 0.0, 27.51, 69.97, 73.7, 193, 6.5, 30.03620, 32.64000, 3.3719, 32.6400, 30.0362, 197.60, 2.0841, 1455.36, 266.60, 269.0, 8.98, 13.1, 52
2008/03/24, 01:06:22, 943.40, 0.00, 1.03, 1.50, 1016.6, 43.5848100, -59.3299130, , 83.30, 13.51, 80.80, 1017.48, -0.10, 0.0, 27.51, 69.97, 73.3, 212, 4.4, 30.06540, 32.65070, 3.3961, 32.6507, 30.0654, 197.60, 2.1257, 1455.56, 266.40, 276.6, 9.73, 10.8, 52
2008/03/24, 01:07:22, 1022.00, 0.00, 1.12, 1.50, 1016.7, 43.5852220, -59.3249970, , 85.80, 13.25, 79.30, 1017.71, -0.10, 0.0, 27.51, 69.95, 73.3, 186, 7.2, 30.09290, 32.66040, 3.4193, 32.6604, 30.0929, 192.00, 2.1536, 1455.69, 264.00, 262.9, 8.88, 13.4, 52
2008/03/24, 01:08:22, 1110.00, 0.00, 0.92, 1.50, 1016.8, 43.5856270, -59.3203270, , 79.70, 12.32, 80.80, 1017.36, -0.40, 0.0, 27.51, 68.25, 71.5, 200, 6.6, 30.12640, 32.67680, 3.4429, 32.6768, 30.1264, 190.80, 2.1773, 1455.82, 271.10, 273.6, 10.77, 12.5, 52
2008/03/24, 01:09:22, 1219.00, 0.00, 0.90, 1.40, 1017.0, 43.5860580, -59.3155520, , 82.40, 12.29, 80.10, 1017.37, -0.40, 0.0, 27.51, 66.47, 70.9, 209, 8.6, 30.17290, 32.69700, 3.4781, 32.6970, 30.1729, 184.80, 2.1992, 1455.94, 269.60, 276.6, 10.48, 14.4, 52
2008/03/24, 01:10:22, 1085.00, 0.00, 0.90, 1.30, 1016.8, 43.5864380, -59.3108020, , 82.00, 12.25, 81.50, 1017.57, -0.50, 0.0, 27.51, 65.36, 69.2, 202, 7.5, 30.22040, 32.70510, 3.5265, 32.7051, 30.2204, 176.20, 2.2175, 1456.04, 270.00, 271.6, 12.16, 13.7, 52
2008/03/24, 01:11:22, 1120.00, 0.00, 0.87, 1.30, 1016.5, 43.5868630, -59.3059520, , 85.90, 12.47, 80.60, 1017.36, -0.20, 0.0, 27.51, 64.13, 67.7, 208, 10.1, 30.23850, 32.71900, 3.5342, 32.7190, 30.2385, 177.10, 2.2285, 1456.10, 262.40, 272.3, 11.38, 16.0, 52
2008/03/24, 01:12:22, 1006.00, 0.00, 0.98, 1.40, 1017.0, 43.5873430, -59.3010980, , 74.10, 13.05, 81.40, 1017.40, -0.30, 0.0, 27.51, 64.55, 66.7, 202, 8.0, 30.26990, 32.73260, 3.5580, 32.7326, 30.2699, 173.20, 2.2373, 1456.15, 272.30, 273.0, 12.46, 14.2, 52
2008/03/24, 01:13:22, 870.90, 0.00, 1.01, 1.40, 1016.9, 43.5877680, -59.2962700, , 80.90, 11.89, 81.80, 1017.73, -0.10, 0.0, 27.51, 65.07, 67.5, 210, 6.4, 30.31820, 32.75790, 3.5901, 32.7579, 30.3182, 162.20, 2.2421, 1456.21, 270.50, 275.7, 10.98, 12.7, 52
2008/03/24, 01:14:22, 900.20, 0.00, 1.06, 1.50, 1016.7, 43.5881050, -59.2915700, , 82.30, 13.35, 80.80, 1017.34, -0.20, 0.0, 27.51, 65.46, 67.9, 195, 6.0, 30.35210, 32.76650, 3.6218, 32.7665, 30.3521, 163.40, 2.2420, 1456.22, 270.40, 268.4, 10.43, 12.2, 52
2008/03/24, 01:15:22, 1003.00, 0.00, 1.17, 1.50, 1017.1, 43.5885370, -59.2867750, , 87.00, 13.14, 80.10, 1017.63, -0.50, 0.0, 27.51, 66.70, 68.8, 194, 6.2, 30.37310, 32.76440, 3.6487, 32.7644, 30.3731, 166.80, 2.2354, 1456.19, 265.30, 267.9, 9.03, 12.5, 52
2008/03/24, 01:16:22, 1096.00, 0.00, 1.12, 1.60, 1016.6, 43.5889050, -59.2818970, , 83.40, 12.58, 81.00, 1017.53, -0.50, 0.0, 27.51, 64.99, 68.7, 204, 6.0, 30.38880, 32.76770, 3.6640, 32.7677, 30.3888, 164.90, 2.2272, 1456.16, 264.60, 271.5, 9.57, 12.3, 52
2008/03/24, 01:17:21, 1092.00, 0.00, 1.06, 1.60, 1016.9, 43.5892650, -59.2770800, , 81.20, 11.23, 79.70, 1017.77, -0.50, 0.0, 27.51, 64.34, 66.9, 200, 7.8, 30.40250, 32.77220, 3.6758, 32.7722, 30.4025, 164.00, 2.2155, 1456.11, 269.20, 272.9, 10.04, 14.2, 52
2008/03/24, 01:18:22, 1180.00, 0.00, 1.17, 1.50, 1016.8, 43.5896870, -59.2723620, , 80.30, 12.25, 79.60, 1017.71, -0.30, 0.0, 27.51, 64.99, 66.7, 198, 6.7, 30.40300, 32.76620, 3.6824, 32.7662, 30.4030, 166.10, 2.1962, 1456.02, 264.80, 268.3, 11.03, 13.4, 52
2008/03/24, 01:19:22, 1278.00, 0.00, 1.23, 1.60, 1016.9, 43.5900480, -59.2676280, , 85.80, 12.68, 81.80, 1017.80, -0.20, 0.0, 27.51, 65.64, 68.1, 198, 6.3, 30.41350, 32.76130, 3.6996, 32.7613, 30.4135, 165.80, 2.1830, 1455.96, 265.90, 272.4, 9.91, 13.0, 52
2008/03/24, 01:20:22, 1242.00, 0.00, 1.03, 1.60, 1017.0, 43.5903580, -59.2628500, , 80.10, 12.17, 82.00, 1017.76, -0.20, 0.0, 27.51, 64.16, 66.8, 203, 6.9, 30.40400, 32.76230, 3.6875, 32.7623, 30.4040, 165.50, 2.1740, 1455.92, 267.50, 274.6, 9.60, 13.2, 52
2008/03/24, 01:21:22, 1185.00, 0.00, 1.06, 1.60, 1016.9, 43.5907470, -59.2581030, , 82.20, 11.76, 80.00, 1017.97, -0.60, 0.0, 27.51, 64.32, 66.5, 204, 7.0, 30.38910, 32.75560, 3.6764, 32.7556, 30.3891, 168.30, 2.1677, 1455.89, 265.00, 272.5, 10.63, 13.3, 52
2008/03/24, 01:22:22, 1126.00, 0.00, 1.15, 1.60, 1016.9, 43.5910830, -59.2534200, , 84.40, 12.62, 81.70, 1017.70, -0.40, 0.0, 27.51, 64.60, 67.3, 203, 7.9, 30.36300, 32.74490, 3.6562, 32.7449, 30.3630, 170.40, 2.1591, 1455.83, 270.10, 273.6, 10.60, 14.4, 52
2008/03/24, 01:23:23, 988.40, 0.00, 1.03, 1.60, 1017.3, 43.5914550, -59.2485950, , 80.10, 12.51, 78.90, 1017.88, -0.20, 0.0, 27.51, 64.73, 66.9, 207, 8.7, 30.34350, 32.73410, 3.6437, 32.7341, 30.3435, 168.80, 2.1556, 1455.80, 271.40, 278.1, 10.77, 15.3, 52
2008/03/24, 01:24:22, 932.20, 0.00, 1.03, 1.60, 1017.1, 43.5918500, -59.2437770, , 85.40, 13.49, 80.40, 1017.98, -0.40, 0.0, 27.51, 64.78, 67.6, 207, 6.7, 30.30700, 32.71690, 3.6176, 32.7169, 30.3070, 173.70, 2.1538, 1455.77, 270.00, 272.5, 11.21, 13.2, 52
2008/03/24, 01:25:22, 944.60, 0.00, 1.12, 1.60, 1017.1, 43.5921370, -59.2389900, , 78.10, 12.54, 81.20, 1017.69, -0.20, 0.0, 27.51, 65.62, 67.6, 197, 5.4, 30.27590, 32.70230, 3.5951, 32.7023, 30.2759, 179.20, 2.1535, 1455.75, 275.00, 273.6, 10.13, 11.6, 52
2008/03/24, 01:26:22, 1009.00, 0.00, 1.06, 1.60, 1017.2, 43.5924720, -59.2341100, , 82.00, 12.54, 78.70, 1018.06, -0.30, 0.0, 27.51, 64.29, 68.4, 201, 6.8, 30.25190, 32.69510, 3.5739, 32.6951, 30.2519, 180.20, 2.1558, 1455.75, 267.90, 272.6, 9.84, 13.5, 52
2008/03/24, 01:27:21, 1121.00, 0.00, 1.06, 1.60, 1017.2, 43.5928150, -59.2292630, , 83.70, 13.00, 81.00, 1017.42, -0.20, 0.0, 27.51, 63.98, 66.6, 202, 9.9, 30.23930, 32.69020, 3.5637, 32.6902, 30.2393, 184.40, 2.1573, 1455.75, 271.20, 276.1, 10.11, 15.9, 52
2008/03/24, 01:28:21, 1256.00, 0.00, 1.01, 1.60, 1017.2, 43.5930850, -59.2244080, , 91.40, 12.06, 80.10, 1017.91, -0.20, 0.0, 27.51, 64.03, 66.3, 207, 7.6, 30.23190, 32.68940, 3.5557, 32.6894, 30.2319, 180.40, 2.1597, 1455.76, 270.90, 276.6, 11.62, 14.2, 52
2008/03/24, 01:29:22, 1261.00, 0.00, 1.06, 1.60, 1016.9, 43.5935170, -59.2195280, , 87.50, 13.13, 80.60, 1017.74, -0.10, 0.0, 27.51, 63.85, 66.1, 204, 7.6, 30.23730, 32.69070, 3.5609, 32.6907, 30.2373, 173.20, 2.1636, 1455.78, 267.50, 270.0, 11.92, 13.8, 52
2008/03/24, 01:30:22, 1201.00, 0.00, 1.20, 1.60, 1017.0, 43.5938870, -59.2148020, , 89.40, 12.97, 79.60, 1017.91, -0.20, 0.0, 27.51, 64.86, 66.7, 203, 6.5, 30.23710, 32.69380, 3.5574, 32.6938, 30.2371, 175.00, 2.1687, 1455.81, 267.70, 270.8, 11.30, 12.9, 52
2008/03/24, 01:31:22, 1102.00, 0.00, 1.12, 1.60, 1016.9, 43.5942470, -59.2099700, , 83.30, 12.02, 80.00, 1017.65, -0.30, 0.0, 27.51, 64.86, 67.0, 206, 6.6, 30.23680, 32.69640, 3.5546, 32.6964, 30.2368, 172.00, 2.1734, 1455.83, 270.10, 274.1, 10.29, 13.0, 52
2008/03/24, 01:32:22, 994.50, 0.00, 1.15, 1.60, 1017.2, 43.5946580, -59.2051750, , 81.30, 12.65, 79.10, 1018.03, 0.00, 0.0, 27.51, 64.76, 67.3, 202, 5.2, 30.23950, 32.69720, 3.5570, 32.6972, 30.2395, 171.00, 2.1784, 1455.85, 268.20, 270.5, 10.42, 11.6, 52